NOAA 16 DEB

Satellite information

Favourite Embed

Satellite Type and Status

DEBRISIN ORBIT

Key statistics

Satellite NOAA 16 DEB at a glance.

Uptime

9055

Days in orbit

Revolutions

≈ 14.5

Per day

Orbit

SSO

Sun Synchronous Orbit

Inclination

98.8

Latest

Satellite identification and parameters

Extended collection of information and parameters for NOAA 16 DEB.

Object identification

Identified? True

Debris? True

Object name: NOAA 16 DEB

International designator: 2000-055FF

Object number (NORAD): 41255

Object ID (CCSDS): 41255

Country: UNITED STATES OF AMERICA (US)

Current information (Y/N): Y

RCS size: SMALL

Orbital parameters

Period: 99.246 minutes

Inclination: 98.7546 deg

SMA: 7100.74 km

Apoapsis: 744.471 km

Periapsis: 700.739 km

RAAN: 311.0417 deg

Eccentricy: 0.0030794

Argument of periapsis: 339.4964 deg

Mean anomaly: 20.4991 deg

Mean motion: 14.50932814 rev/day

Mean motion (dot): 0.00006577 rev/day2

B* drag term: 0.0016662 1/REarth

Two-line elements (TLE)

Creation date: July 4, 2025, 3:20 a.m.

Reference frame: TEME

Reference center: EARTH

Epoch: July 3, 2025, 7:08 p.m. UTC

TLE line 0: 0 NOAA 16 DEB

TLE line 1: 1 41255U 00055FF 25184.79726712 .00006577 00000-0 16662-2 0 9996

TLE line 2: 2 41255 98.7546 311.0417 0030794 339.4964 20.4991 14.50932814498740

Live tracking on map

Real-time ground track for satellite NOAA 16 DEB.

In-orbit conjunctions

A list of the most updated potential collisions computed for object NOAA 16 DEB.

Target Orbit TCA Probability of collision Miss distance Type
IRIDIUM 33 DEB LEO 2025-06-22 10:18:36 0.0001005051 117.0 (m) DEBRIS
COSMOS 1814 LEO 2025-02-05 20:50:29 0.0003934724 50.0 (m) PAYLOAD

Associated space launch

The NOAA K, L and M POES satellites begin the fifth generation of improved environmental monitoring in support of NOAA missions. The instrument payload has significant improvements and additions/deletions. The instrument changes have effected the spacecraft subsystems and data formats.

NOAA 16 DEB was lifted into orbit during the mission ‘Titan II SLV | NOAA 16’, on board a Titan II SLV space rocket.

The launch took place on Sept. 21, 2000, 10:22 a.m. from Space Launch Complex 4W.

For more information about the launch, click the button.

Launch to space Titan II SLV | NOAA 16
Titan II SLV | NOAA 16

Agency: N/A

Status: Launch Successful

Launch date: Sept. 21, 2000, 10:22 a.m. UTC

Rocket: Titan II SLV

Launch pad: Space Launch Complex 4W

Location: Vandenberg SFB, CA, USA

...

Latest news about this satellite

There are no fresh news available about this satellite. Check back as we update our databases every day.


Newsletter sign-up

Weekly statistics, charts and insights to help you stay on top of the space industry.